This is the latest recevied weather packets stored in our database for station/object KE8WMS. If no packets are shown the sender has not sent any weather packets the latest 10 day(s).
| Time | Temp. | Humidity | Pressure | Rain* | Wind** | Luminosity | Snow |
|---|---|---|---|---|---|---|---|
| 1777691398 | 3.89° C | 97% | 1013.2 hPa | 1.27 mm | - | 0 W/m² | - |
| 1777691096 | 3.89° C | 97% | 1013.5 hPa | 1.78 mm | - | 0 W/m² | - |
| 1777690794 | 3.89° C | 96% | 1013.6 hPa | 1.78 mm | - | 0 W/m² | - |
| 1777690491 | 3.89° C | 96% | 1013.1 hPa | 1.27 mm | - | 0 W/m² | - |
| 1777690189 | 3.89° C | 96% | 1013.5 hPa | 3.05 mm | - | 0 W/m² | - |
| 1777689887 | 3.89° C | 96% | 1013.2 hPa | 3.05 mm | - | 0 W/m² | - |
| 1777689585 | 3.89° C | 95% | 1013.3 hPa | 3.05 mm | - | 0 W/m² | - |
| 1777689282 | 3.89° C | 95% | 1013.1 hPa | 6.1 mm | - | 0 W/m² | - |
| 1777688979 | 3.89° C | 94% | 1013.2 hPa | 10.67 mm | - | 0 W/m² | - |
| 1777688675 | 3.89° C | 93% | 1013.2 hPa | 9.65 mm | - | 0 W/m² | - |
| 1777688372 | 3.89° C | 93% | 1013.3 hPa | 6.1 mm | - | 0 W/m² | - |
| 1777688070 | 4.44° C | 92% | 1013.2 hPa | 6.1 mm | - | 0 W/m² | - |
| 1777687767 | 5° C | 92% | 1013.1 hPa | 3.05 mm | - | 0 W/m² | - |
| 1777687465 | 5° C | 93% | 1013.2 hPa | 0 mm | - | 0 W/m² | - |
| 1777687161 | 5° C | 94% | 1013 hPa | 0 mm | - | 0 W/m² | - |
| 1777686859 | 5° C | 94% | 1012.8 hPa | 0 mm | - | 0 W/m² | - |
| 1777686555 | 5.56° C | 94% | 1012.9 hPa | 0 mm | - | 0 W/m² | - |
| 1777686253 | 5.56° C | 94% | 1012.5 hPa | 0 mm | - | 0 W/m² | - |
| 1777685949 | 5° C | 94% | 1012.5 hPa | 0 mm | - | 0 W/m² | - |
| 1777685644 | 5° C | 93% | 1012.2 hPa | 0 mm | - | 0 W/m² | - |
| 1777685341 | 5° C | 93% | 1012.3 hPa | 0 mm | - | 0 W/m² | - |
| 1777685039 | 5° C | 93% | 1012.3 hPa | 0 mm | - | 0 W/m² | - |
| 1777684736 | 5° C | 92% | 1012.1 hPa | 0 mm | - | 0 W/m² | - |
| 1777684432 | 5° C | 92% | 1012.2 hPa | 0 mm | - | 0 W/m² | - |
| 1777684129 | 5° C | 92% | 1012.2 hPa | 0 mm | - | 0 W/m² | - |
* Rain latest hour (hover to see other rain measurements)
** Current wind speed in m/s (hover to see current wind gust speed)